This is the latest recevied weather packets stored in our database for station/object SV1JSO-13. If no packets are shown the sender has not sent any weather packets the latest 10 day(s).
| Time | Temp. | Humidity | Pressure | Rain* | Wind** | Luminosity | Snow |
|---|---|---|---|---|---|---|---|
| 1788441600 | 32.78° C | 31% | 1005.4 hPa | 0 mm | - | 500 W/m² | - |
| 1788441300 | 32.78° C | 30% | 1005.4 hPa | 0 mm | - | 506 W/m² | - |
| 1788441000 | 33.33° C | 30% | 1005.5 hPa | 0 mm | - | 523 W/m² | - |
| 1788440700 | 32.78° C | 30% | 1005.6 hPa | 0 mm | - | 521 W/m² | - |
| 1788440400 | 33.33° C | 30% | 1005.6 hPa | 0 mm | - | 542 W/m² | - |
| 1788440100 | 33.33° C | 30% | 1005.6 hPa | 0 mm | - | 555 W/m² | - |
| 1788439800 | 33.33° C | 31% | 1005.7 hPa | 0 mm | - | 567 W/m² | - |
| 1788439500 | 32.78° C | 31% | 1005.8 hPa | 0 mm | - | 581 W/m² | - |
| 1788439200 | 32.78° C | 32% | 1005.7 hPa | 0 mm | - | 594 W/m² | - |
| 1788438900 | 32.78° C | 32% | 1005.8 hPa | 0 mm | - | 604 W/m² | - |
| 1788438600 | 32.78° C | 32% | 1005.8 hPa | 0 mm | - | 616 W/m² | - |
| 1788438300 | 32.78° C | 31% | 1005.7 hPa | 0 mm | - | 626 W/m² | - |
| 1788438000 | 32.78° C | 31% | 1005.8 hPa | 0 mm | - | 638 W/m² | - |
| 1788437700 | 32.78° C | 31% | 1005.8 hPa | 0 mm | - | 646 W/m² | - |
| 1788437400 | 32.78° C | 31% | 1006 hPa | 0 mm | - | 643 W/m² | - |
| 1788437100 | 32.78° C | 32% | 1005.8 hPa | 0 mm | - | 649 W/m² | - |
| 1788436800 | 33.33° C | 32% | 1006.2 hPa | 0 mm | - | 671 W/m² | - |
| 1788436500 | 32.78° C | 32% | 1006.1 hPa | 0 mm | - | 663 W/m² | - |
| 1788436200 | 32.78° C | 33% | 1006.1 hPa | 0 mm | - | 681 W/m² | - |
| 1788435900 | 32.22° C | 33% | 1006.1 hPa | 0 mm | - | 686 W/m² | - |
| 1788435600 | 33.33° C | 33% | 1006.2 hPa | 0 mm | - | 690 W/m² | - |
| 1788435300 | 32.78° C | 34% | 1006.3 hPa | 0 mm | - | 705 W/m² | - |
| 1788435000 | 32.78° C | 34% | 1006.3 hPa | 0 mm | - | 700 W/m² | - |
| 1788434700 | 33.33° C | 34% | 1006.2 hPa | 0 mm | - | 705 W/m² | - |
| 1788434400 | 33.33° C | 35% | 1006.3 hPa | 0 mm | - | 705 W/m² | - |
* Rain latest hour (hover to see other rain measurements)
** Current wind speed in m/s (hover to see current wind gust speed)